iso_date,epoch_date,Year,Hour,Min,DOY,POS_DOY,Lat,Lon,BP,Ts,Ta,has_bp,has_ts,has_ta,BuoyID,Buoy_Type,Buoy_Owner,Logistics,Hemisphere
2019-10-05T00:30:40Z,1570235440,2019,0,30,278.0213,278.0213,85.0044,132.9418,-999.00,-999.00,-999.0,no,no,no,900111,ITP,WHOI,MOSAiC,North
2019-10-05T01:00:20Z,1570237220,2019,1,0,278.0419,278.0419,85.0049,132.9277,-999.00,-999.00,-999.0,no,no,no,900111,ITP,WHOI,MOSAiC,North
2019-10-05T01:30:17Z,1570239017,2019,1,30,278.0627,278.0627,85.0055,132.9105,-999.00,-999.00,-999.0,no,no,no,900111,ITP,WHOI,MOSAiC,North
2019-10-05T02:00:31Z,1570240832,2019,2,0,278.0837,278.0837,85.0066,132.8992,-999.00,-999.00,-999.0,no,no,no,900111,ITP,WHOI,MOSAiC,North
2019-10-05T02:31:03Z,1570242663,2019,2,31,278.1049,278.1049,85.0076,132.8884,-999.00,-999.00,-999.0,no,no,no,900111,ITP,WHOI,MOSAiC,North
2019-10-05T03:01:00Z,1570244460,2019,3,1,278.1257,278.1257,85.0086,132.8799,-999.00,-999.00,-999.0,no,no,no,900111,ITP,WHOI,MOSAiC,North
2019-10-05T03:30:48Z,1570246249,2019,3,30,278.1464,278.1464,85.0094,132.87,-999.00,-999.00,-999.0,no,no,no,900111,ITP,WHOI,MOSAiC,North
2019-10-05T04:01:12Z,1570248072,2019,4,1,278.1675,278.1675,85.0102,132.8653,-999.00,-999.00,-999.0,no,no,no,900111,ITP,WHOI,MOSAiC,North
2019-10-05T04:31:00Z,1570249860,2019,4,31,278.1882,278.1882,85.0109,132.8483,-999.00,-999.00,-999.0,no,no,no,900111,ITP,WHOI,MOSAiC,North
2019-10-05T05:00:48Z,1570251649,2019,5,0,278.2089,278.2089,85.0115,132.8314,-999.00,-999.00,-999.0,no,no,no,900111,ITP,WHOI,MOSAiC,North
2019-10-05T05:30:46Z,1570253446,2019,5,30,278.2297,278.2297,85.0108,132.8055,-999.00,-999.00,-999.0,no,no,no,900111,ITP,WHOI,MOSAiC,North
2019-10-05T06:00:51Z,1570255252,2019,6,0,278.2506,278.2506,85.0111,132.7889,-999.00,-999.00,-999.0,no,no,no,900111,ITP,WHOI,MOSAiC,North
2019-10-05T06:31:14Z,1570257075,2019,6,31,278.2717,278.2717,85.0115,132.772,-999.00,-999.00,-999.0,no,no,no,900111,ITP,WHOI,MOSAiC,North
2019-10-05T07:00:46Z,1570258846,2019,7,0,278.2922,278.2922,85.0118,132.7639,-999.00,-999.00,-999.0,no,no,no,900111,ITP,WHOI,MOSAiC,North
2019-10-05T07:31:17Z,1570260678,2019,7,31,278.3134,278.3134,85.0122,132.7547,-999.00,-999.00,-999.0,no,no,no,900111,ITP,WHOI,MOSAiC,North
2019-10-05T08:00:48Z,1570262449,2019,8,0,278.3339,278.3339,85.0126,132.7467,-999.00,-999.00,-999.0,no,no,no,900111,ITP,WHOI,MOSAiC,North
2019-10-05T08:30:28Z,1570264229,2019,8,30,278.3545,278.3545,85.0129,132.7364,-999.00,-999.00,-999.0,no,no,no,900111,ITP,WHOI,MOSAiC,North
2019-10-05T09:00:17Z,1570266017,2019,9,0,278.3752,278.3752,85.0134,132.7271,-999.00,-999.00,-999.0,no,no,no,900111,ITP,WHOI,MOSAiC,North
2019-10-05T09:30:14Z,1570267814,2019,9,30,278.396,278.396,85.0139,132.7177,-999.00,-999.00,-999.0,no,no,no,900111,ITP,WHOI,MOSAiC,North
2019-10-05T10:00:11Z,1570269612,2019,10,0,278.4168,278.4168,85.0145,132.7088,-999.00,-999.00,-999.0,no,no,no,900111,ITP,WHOI,MOSAiC,North
2019-10-05T10:30:17Z,1570271417,2019,10,30,278.4377,278.4377,85.0152,132.7011,-999.00,-999.00,-999.0,no,no,no,900111,ITP,WHOI,MOSAiC,North
2019-10-05T11:00:14Z,1570273214,2019,11,0,278.4585,278.4585,85.0159,132.6939,-999.00,-999.00,-999.0,no,no,no,900111,ITP,WHOI,MOSAiC,North
2019-10-05T11:30:11Z,1570275012,2019,11,30,278.4793,278.4793,85.0167,132.6875,-999.00,-999.00,-999.0,no,no,no,900111,ITP,WHOI,MOSAiC,North
2019-10-05T12:00:34Z,1570276835,2019,12,0,278.5004,278.5004,85.0178,132.6819,-999.00,-999.00,-999.0,no,no,no,900111,ITP,WHOI,MOSAiC,North
2019-10-05T12:30:14Z,1570278614,2019,12,30,278.521,278.521,85.0188,132.6776,-999.00,-999.00,-999.0,no,no,no,900111,ITP,WHOI,MOSAiC,North
2019-10-05T13:00:11Z,1570280412,2019,13,0,278.5418,278.5418,85.0199,132.6744,-999.00,-999.00,-999.0,no,no,no,900111,ITP,WHOI,MOSAiC,North
2019-10-05T13:30:34Z,1570282235,2019,13,30,278.5629,278.5629,85.021,132.6721,-999.00,-999.00,-999.0,no,no,no,900111,ITP,WHOI,MOSAiC,North
2019-10-05T14:00:14Z,1570284014,2019,14,0,278.5835,278.5835,85.022,132.6711,-999.00,-999.00,-999.0,no,no,no,900111,ITP,WHOI,MOSAiC,North
2019-10-05T14:30:20Z,1570285820,2019,14,30,278.6044,278.6044,85.0231,132.6715,-999.00,-999.00,-999.0,no,no,no,900111,ITP,WHOI,MOSAiC,North
2019-10-05T15:01:00Z,1570287660,2019,15,1,278.6257,278.6257,85.0242,132.6734,-999.00,-999.00,-999.0,no,no,no,900111,ITP,WHOI,MOSAiC,North
2019-10-05T15:31:14Z,1570289475,2019,15,31,278.6467,278.6467,85.0253,132.6767,-999.00,-999.00,-999.0,no,no,no,900111,ITP,WHOI,MOSAiC,North
2019-10-05T16:01:20Z,1570291281,2019,16,1,278.6676,278.6676,85.0261,132.6804,-999.00,-999.00,-999.0,no,no,no,900111,ITP,WHOI,MOSAiC,North
2019-10-05T16:31:00Z,1570293060,2019,16,31,278.6882,278.6882,85.0269,132.6849,-999.00,-999.00,-999.0,no,no,no,900111,ITP,WHOI,MOSAiC,North
2019-10-05T17:00:57Z,1570294858,2019,17,1,278.709,278.709,85.0275,132.689,-999.00,-999.00,-999.0,no,no,no,900111,ITP,WHOI,MOSAiC,North
2019-10-05T17:30:46Z,1570296646,2019,17,30,278.7297,278.7297,85.028,132.6937,-999.00,-999.00,-999.0,no,no,no,900111,ITP,WHOI,MOSAiC,North
2019-10-05T18:00:43Z,1570298443,2019,18,0,278.7505,278.7505,85.0284,132.6977,-999.00,-999.00,-999.0,no,no,no,900111,ITP,WHOI,MOSAiC,North
2019-10-05T18:30:48Z,1570300249,2019,18,30,278.7714,278.7714,85.0286,132.7009,-999.00,-999.00,-999.0,no,no,no,900111,ITP,WHOI,MOSAiC,North
2019-10-05T19:00:46Z,1570302046,2019,19,0,278.7922,278.7922,85.0288,132.7034,-999.00,-999.00,-999.0,no,no,no,900111,ITP,WHOI,MOSAiC,North
2019-10-05T19:30:34Z,1570303835,2019,19,30,278.8129,278.8129,85.029,132.7037,-999.00,-999.00,-999.0,no,no,no,900111,ITP,WHOI,MOSAiC,North
2019-10-05T20:00:14Z,1570305614,2019,20,0,278.8335,278.8335,85.029,132.7033,-999.00,-999.00,-999.0,no,no,no,900111,ITP,WHOI,MOSAiC,North
2019-10-05T20:30:11Z,1570307412,2019,20,30,278.8543,278.8543,85.0291,132.7018,-999.00,-999.00,-999.0,no,no,no,900111,ITP,WHOI,MOSAiC,North
2019-10-05T21:00:43Z,1570309243,2019,21,0,278.8755,278.8755,85.0291,132.7013,-999.00,-999.00,-999.0,no,no,no,900111,ITP,WHOI,MOSAiC,North
2019-10-05T21:30:14Z,1570311014,2019,21,30,278.896,278.896,85.029,132.7016,-999.00,-999.00,-999.0,no,no,no,900111,ITP,WHOI,MOSAiC,North
2019-10-05T22:00:46Z,1570312846,2019,22,0,278.9172,278.9172,85.0291,132.7017,-999.00,-999.00,-999.0,no,no,no,900111,ITP,WHOI,MOSAiC,North
2019-10-05T22:30:17Z,1570314617,2019,22,30,278.9377,278.9377,85.0292,132.7028,-999.00,-999.00,-999.0,no,no,no,900111,ITP,WHOI,MOSAiC,North
2019-10-05T23:00:14Z,1570316414,2019,23,0,278.9585,278.9585,85.0293,132.7046,-999.00,-999.00,-999.0,no,no,no,900111,ITP,WHOI,MOSAiC,North
2019-10-05T23:30:11Z,1570318212,2019,23,30,278.9793,278.9793,85.0295,132.7068,-999.00,-999.00,-999.0,no,no,no,900111,ITP,WHOI,MOSAiC,North
2019-10-06T00:00:17Z,1570320017,2019,0,0,279.0002,279.0002,85.0297,132.709,-999.00,-999.00,-999.0,no,no,no,900111,ITP,WHOI,MOSAiC,North
2019-10-06T00:30:14Z,1570321814,2019,0,30,279.021,279.021,85.0298,132.7106,-999.00,-999.00,-999.0,no,no,no,900111,ITP,WHOI,MOSAiC,North
2019-10-06T01:00:11Z,1570323612,2019,1,0,279.0418,279.0418,85.03,132.7143,-999.00,-999.00,-999.0,no,no,no,900111,ITP,WHOI,MOSAiC,North
2019-10-06T01:30:25Z,1570325426,2019,1,30,279.0628,279.0628,85.03,132.7188,-999.00,-999.00,-999.0,no,no,no,900111,ITP,WHOI,MOSAiC,North
2019-10-06T02:01:06Z,1570327266,2019,2,1,279.0841,279.0841,85.0301,132.7242,-999.00,-999.00,-999.0,no,no,no,900111,ITP,WHOI,MOSAiC,North
2019-10-06T02:30:46Z,1570329046,2019,2,30,279.1047,279.1047,85.0302,132.7305,-999.00,-999.00,-999.0,no,no,no,900111,ITP,WHOI,MOSAiC,North
2019-10-06T03:01:17Z,1570330878,2019,3,1,279.1259,279.1259,85.0302,132.7366,-999.00,-999.00,-999.0,no,no,no,900111,ITP,WHOI,MOSAiC,North
2019-10-06T03:30:48Z,1570332649,2019,3,30,279.1464,279.1464,85.0302,132.7427,-999.00,-999.00,-999.0,no,no,no,900111,ITP,WHOI,MOSAiC,North
2019-10-06T04:01:20Z,1570334481,2019,4,1,279.1676,279.1676,85.03,132.749,-999.00,-999.00,-999.0,no,no,no,900111,ITP,WHOI,MOSAiC,North
2019-10-06T04:30:34Z,1570336235,2019,4,30,279.1879,279.1879,85.0298,132.7549,-999.00,-999.00,-999.0,no,no,no,900111,ITP,WHOI,MOSAiC,North
2019-10-06T05:00:48Z,1570338049,2019,5,0,279.2089,279.2089,85.0294,132.7598,-999.00,-999.00,-999.0,no,no,no,900111,ITP,WHOI,MOSAiC,North
2019-10-06T05:30:54Z,1570339855,2019,5,30,279.2298,279.2298,85.0291,132.7637,-999.00,-999.00,-999.0,no,no,no,900111,ITP,WHOI,MOSAiC,North
2019-10-06T06:00:51Z,1570341652,2019,6,0,279.2506,279.2506,85.0286,132.767,-999.00,-999.00,-999.0,no,no,no,900111,ITP,WHOI,MOSAiC,North
2019-10-06T06:31:06Z,1570343466,2019,6,31,279.2716,279.2716,85.0282,132.7696,-999.00,-999.00,-999.0,no,no,no,900111,ITP,WHOI,MOSAiC,North
2019-10-06T07:01:03Z,1570345263,2019,7,1,279.2924,279.2924,85.0276,132.7713,-999.00,-999.00,-999.0,no,no,no,900111,ITP,WHOI,MOSAiC,North
2019-10-06T07:30:51Z,1570347052,2019,7,30,279.3131,279.3131,85.0271,132.7725,-999.00,-999.00,-999.0,no,no,no,900111,ITP,WHOI,MOSAiC,North
2019-10-06T08:00:31Z,1570348832,2019,8,0,279.3337,279.3337,85.0266,132.7735,-999.00,-999.00,-999.0,no,no,no,900111,ITP,WHOI,MOSAiC,North
2019-10-06T08:30:46Z,1570350646,2019,8,30,279.3547,279.3547,85.0262,132.7748,-999.00,-999.00,-999.0,no,no,no,900111,ITP,WHOI,MOSAiC,North
2019-10-06T09:00:25Z,1570352426,2019,9,0,279.3753,279.3753,85.0257,132.7761,-999.00,-999.00,-999.0,no,no,no,900111,ITP,WHOI,MOSAiC,North
2019-10-06T09:30:31Z,1570354232,2019,9,30,279.3962,279.3962,85.0254,132.778,-999.00,-999.00,-999.0,no,no,no,900111,ITP,WHOI,MOSAiC,North
2019-10-06T10:00:46Z,1570356046,2019,10,0,279.4172,279.4172,85.025,132.7804,-999.00,-999.00,-999.0,no,no,no,900111,ITP,WHOI,MOSAiC,North
2019-10-06T10:30:17Z,1570357817,2019,10,30,279.4377,279.4377,85.0247,132.7833,-999.00,-999.00,-999.0,no,no,no,900111,ITP,WHOI,MOSAiC,North
2019-10-06T11:00:14Z,1570359614,2019,11,0,279.4585,279.4585,85.0245,132.7867,-999.00,-999.00,-999.0,no,no,no,900111,ITP,WHOI,MOSAiC,North
2019-10-06T11:30:11Z,1570361412,2019,11,30,279.4793,279.4793,85.0243,132.7909,-999.00,-999.00,-999.0,no,no,no,900111,ITP,WHOI,MOSAiC,North
2019-10-06T12:00:43Z,1570363243,2019,12,0,279.5005,279.5005,85.0241,132.7952,-999.00,-999.00,-999.0,no,no,no,900111,ITP,WHOI,MOSAiC,North
2019-10-06T12:30:14Z,1570365014,2019,12,30,279.521,279.521,85.0241,132.8,-999.00,-999.00,-999.0,no,no,no,900111,ITP,WHOI,MOSAiC,North
2019-10-06T13:00:11Z,1570366812,2019,13,0,279.5418,279.5418,85.0241,132.8056,-999.00,-999.00,-999.0,no,no,no,900111,ITP,WHOI,MOSAiC,North
2019-10-06T13:30:43Z,1570368643,2019,13,30,279.563,279.563,85.0241,132.8123,-999.00,-999.00,-999.0,no,no,no,900111,ITP,WHOI,MOSAiC,North
2019-10-06T14:00:14Z,1570370414,2019,14,0,279.5835,279.5835,85.0241,132.8199,-999.00,-999.00,-999.0,no,no,no,900111,ITP,WHOI,MOSAiC,North
2019-10-06T14:31:03Z,1570372263,2019,14,31,279.6049,279.6049,85.0241,132.8284,-999.00,-999.00,-999.0,no,no,no,900111,ITP,WHOI,MOSAiC,North
2019-10-06T15:01:00Z,1570374060,2019,15,1,279.6257,279.6257,85.0241,132.8376,-999.00,-999.00,-999.0,no,no,no,900111,ITP,WHOI,MOSAiC,North
2019-10-06T15:31:14Z,1570375875,2019,15,31,279.6467,279.6467,85.024,132.8477,-999.00,-999.00,-999.0,no,no,no,900111,ITP,WHOI,MOSAiC,North
2019-10-06T16:01:20Z,1570377681,2019,16,1,279.6676,279.6676,85.0239,132.8584,-999.00,-999.00,-999.0,no,no,no,900111,ITP,WHOI,MOSAiC,North
2019-10-06T16:31:00Z,1570379460,2019,16,31,279.6882,279.6882,85.0238,132.8701,-999.00,-999.00,-999.0,no,no,no,900111,ITP,WHOI,MOSAiC,North
2019-10-06T17:00:57Z,1570381258,2019,17,1,279.709,279.709,85.0236,132.8825,-999.00,-999.00,-999.0,no,no,no,900111,ITP,WHOI,MOSAiC,North
2019-10-06T17:31:03Z,1570383063,2019,17,31,279.7299,279.7299,85.0233,132.8958,-999.00,-999.00,-999.0,no,no,no,900111,ITP,WHOI,MOSAiC,North
2019-10-06T18:00:51Z,1570384852,2019,18,0,279.7506,279.7506,85.0229,132.9097,-999.00,-999.00,-999.0,no,no,no,900111,ITP,WHOI,MOSAiC,North
2019-10-06T18:30:48Z,1570386649,2019,18,30,279.7714,279.7714,85.0223,132.9244,-999.00,-999.00,-999.0,no,no,no,900111,ITP,WHOI,MOSAiC,North
2019-10-06T19:00:46Z,1570388446,2019,19,0,279.7922,279.7922,85.0216,132.9397,-999.00,-999.00,-999.0,no,no,no,900111,ITP,WHOI,MOSAiC,North
2019-10-06T19:30:17Z,1570390217,2019,19,30,279.8127,279.8127,85.0208,132.9548,-999.00,-999.00,-999.0,no,no,no,900111,ITP,WHOI,MOSAiC,North
2019-10-06T20:00:14Z,1570392014,2019,20,0,279.8335,279.8335,85.0199,132.9692,-999.00,-999.00,-999.0,no,no,no,900111,ITP,WHOI,MOSAiC,North
2019-10-06T20:30:11Z,1570393812,2019,20,30,279.8543,279.8543,85.019,132.9815,-999.00,-999.00,-999.0,no,no,no,900111,ITP,WHOI,MOSAiC,North
2019-10-06T21:00:17Z,1570395617,2019,21,0,279.8752,279.8752,85.0182,132.9928,-999.00,-999.00,-999.0,no,no,no,900111,ITP,WHOI,MOSAiC,North
2019-10-06T21:30:14Z,1570397414,2019,21,30,279.896,279.896,85.0173,133.0035,-999.00,-999.00,-999.0,no,no,no,900111,ITP,WHOI,MOSAiC,North
2019-10-06T22:00:11Z,1570399212,2019,22,0,279.9168,279.9168,85.0165,133.0149,-999.00,-999.00,-999.0,no,no,no,900111,ITP,WHOI,MOSAiC,North
2019-10-06T22:30:17Z,1570401017,2019,22,30,279.9377,279.9377,85.0157,133.0248,-999.00,-999.00,-999.0,no,no,no,900111,ITP,WHOI,MOSAiC,North
2019-10-06T23:00:14Z,1570402814,2019,23,0,279.9585,279.9585,85.015,133.036,-999.00,-999.00,-999.0,no,no,no,900111,ITP,WHOI,MOSAiC,North
2019-10-06T23:30:11Z,1570404612,2019,23,30,279.9793,279.9793,85.0144,133.0484,-999.00,-999.00,-999.0,no,no,no,900111,ITP,WHOI,MOSAiC,North
2019-10-07T00:00:43Z,1570406443,2019,0,0,280.0005,280.0005,85.0137,133.0612,-999.00,-999.00,-999.0,no,no,no,900111,ITP,WHOI,MOSAiC,North
2019-10-07T00:30:14Z,1570408214,2019,0,30,280.021,280.021,85.0132,133.0748,-999.00,-999.00,-999.0,no,no,no,900111,ITP,WHOI,MOSAiC,North
2019-10-07T01:01:03Z,1570410063,2019,1,1,280.0424,280.0424,85.0128,133.0898,-999.00,-999.00,-999.0,no,no,no,900111,ITP,WHOI,MOSAiC,North
2019-10-07T01:30:17Z,1570411817,2019,1,30,280.0627,280.0627,85.0124,133.1052,-999.00,-999.00,-999.0,no,no,no,900111,ITP,WHOI,MOSAiC,North
2019-10-07T02:01:06Z,1570413666,2019,2,1,280.0841,280.0841,85.012,133.1224,-999.00,-999.00,-999.0,no,no,no,900111,ITP,WHOI,MOSAiC,North
2019-10-07T02:31:20Z,1570415481,2019,2,31,280.1051,280.1051,85.0116,133.1403,-999.00,-999.00,-999.0,no,no,no,900111,ITP,WHOI,MOSAiC,North
2019-10-07T03:01:00Z,1570417260,2019,3,1,280.1257,280.1257,85.0111,133.1586,-999.00,-999.00,-999.0,no,no,no,900111,ITP,WHOI,MOSAiC,North
2019-10-07T03:31:06Z,1570419066,2019,3,31,280.1466,280.1466,85.0104,133.1774,-999.00,-999.00,-999.0,no,no,no,900111,ITP,WHOI,MOSAiC,North
2019-10-07T04:01:20Z,1570420881,2019,4,1,280.1676,280.1676,85.0097,133.1967,-999.00,-999.00,-999.0,no,no,no,900111,ITP,WHOI,MOSAiC,North
2019-10-07T04:31:00Z,1570422660,2019,4,31,280.1882,280.1882,85.009,133.2161,-999.00,-999.00,-999.0,no,no,no,900111,ITP,WHOI,MOSAiC,North
2019-10-07T05:00:57Z,1570424458,2019,5,1,280.209,280.209,85.0081,133.2358,-999.00,-999.00,-999.0,no,no,no,900111,ITP,WHOI,MOSAiC,North
2019-10-07T05:31:03Z,1570426263,2019,5,31,280.2299,280.2299,85.0072,133.256,-999.00,-999.00,-999.0,no,no,no,900111,ITP,WHOI,MOSAiC,North
2019-10-07T06:01:00Z,1570428060,2019,6,1,280.2507,280.2507,85.0062,133.2758,-999.00,-999.00,-999.0,no,no,no,900111,ITP,WHOI,MOSAiC,North
2019-10-07T06:30:57Z,1570429858,2019,6,31,280.2715,280.2715,85.0052,133.295,-999.00,-999.00,-999.0,no,no,no,900111,ITP,WHOI,MOSAiC,North
2019-10-07T07:00:46Z,1570431646,2019,7,0,280.2922,280.2922,85.004,133.3129,-999.00,-999.00,-999.0,no,no,no,900111,ITP,WHOI,MOSAiC,North
2019-10-07T07:31:00Z,1570433460,2019,7,31,280.3132,280.3132,85.0028,133.3306,-999.00,-999.00,-999.0,no,no,no,900111,ITP,WHOI,MOSAiC,North
2019-10-07T08:00:48Z,1570435249,2019,8,0,280.3339,280.3339,85.0016,133.3479,-999.00,-999.00,-999.0,no,no,no,900111,ITP,WHOI,MOSAiC,North
2019-10-07T08:30:46Z,1570437046,2019,8,30,280.3547,280.3547,85.0005,133.365,-999.00,-999.00,-999.0,no,no,no,900111,ITP,WHOI,MOSAiC,North
2019-10-07T09:00:43Z,1570438843,2019,9,0,280.3755,280.3755,84.9993,133.3825,-999.00,-999.00,-999.0,no,no,no,900111,ITP,WHOI,MOSAiC,North
2019-10-07T09:30:14Z,1570440614,2019,9,30,280.396,280.396,84.9981,133.4005,-999.00,-999.00,-999.0,no,no,no,900111,ITP,WHOI,MOSAiC,North
2019-10-07T10:00:11Z,1570442412,2019,10,0,280.4168,280.4168,84.997,133.4193,-999.00,-999.00,-999.0,no,no,no,900111,ITP,WHOI,MOSAiC,North
2019-10-07T10:30:17Z,1570444217,2019,10,30,280.4377,280.4377,84.9959,133.4408,-999.00,-999.00,-999.0,no,no,no,900111,ITP,WHOI,MOSAiC,North
2019-10-07T11:00:14Z,1570446014,2019,11,0,280.4585,280.4585,84.9946,133.4649,-999.00,-999.00,-999.0,no,no,no,900111,ITP,WHOI,MOSAiC,North
2019-10-07T11:30:11Z,1570447812,2019,11,30,280.4793,280.4793,84.9934,133.4911,-999.00,-999.00,-999.0,no,no,no,900111,ITP,WHOI,MOSAiC,North
2019-10-07T12:00:17Z,1570449617,2019,12,0,280.5002,280.5002,84.9922,133.5185,-999.00,-999.00,-999.0,no,no,no,900111,ITP,WHOI,MOSAiC,North
2019-10-07T12:30:14Z,1570451414,2019,12,30,280.521,280.521,84.9909,133.5462,-999.00,-999.00,-999.0,no,no,no,900111,ITP,WHOI,MOSAiC,North
2019-10-07T13:00:11Z,1570453212,2019,13,0,280.5418,280.5418,84.9896,133.5751,-999.00,-999.00,-999.0,no,no,no,900111,ITP,WHOI,MOSAiC,North
2019-10-07T13:30:17Z,1570455017,2019,13,30,280.5627,280.5627,84.9882,133.6046,-999.00,-999.00,-999.0,no,no,no,900111,ITP,WHOI,MOSAiC,North
2019-10-07T14:00:31Z,1570456832,2019,14,0,280.5837,280.5837,84.9867,133.6347,-999.00,-999.00,-999.0,no,no,no,900111,ITP,WHOI,MOSAiC,North
2019-10-07T14:31:20Z,1570458681,2019,14,31,280.6051,280.6051,84.9851,133.6655,-999.00,-999.00,-999.0,no,no,no,900111,ITP,WHOI,MOSAiC,North
2019-10-07T15:01:00Z,1570460460,2019,15,1,280.6257,280.6257,84.9835,133.6974,-999.00,-999.00,-999.0,no,no,no,900111,ITP,WHOI,MOSAiC,North
2019-10-07T15:31:06Z,1570462266,2019,15,31,280.6466,280.6466,84.9819,133.7295,-999.00,-999.00,-999.0,no,no,no,900111,ITP,WHOI,MOSAiC,North
2019-10-07T16:01:20Z,1570464081,2019,16,1,280.6676,280.6676,84.9801,133.7618,-999.00,-999.00,-999.0,no,no,no,900111,ITP,WHOI,MOSAiC,North
2019-10-07T16:30:51Z,1570465852,2019,16,30,280.6881,280.6881,84.9783,133.7926,-999.00,-999.00,-999.0,no,no,no,900111,ITP,WHOI,MOSAiC,North
2019-10-07T17:00:57Z,1570467658,2019,17,1,280.709,280.709,84.9764,133.8239,-999.00,-999.00,-999.0,no,no,no,900111,ITP,WHOI,MOSAiC,North
2019-10-07T17:31:03Z,1570469463,2019,17,31,280.7299,280.7299,84.9746,133.8543,-999.00,-999.00,-999.0,no,no,no,900111,ITP,WHOI,MOSAiC,North
2019-10-07T18:00:51Z,1570471252,2019,18,0,280.7506,280.7506,84.9728,133.8846,-999.00,-999.00,-999.0,no,no,no,900111,ITP,WHOI,MOSAiC,North
2019-10-07T18:30:14Z,1570473014,2019,18,30,280.771,280.771,84.9709,133.9149,-999.00,-999.00,-999.0,no,no,no,900111,ITP,WHOI,MOSAiC,North
2019-10-07T19:01:03Z,1570474863,2019,19,1,280.7924,280.7924,84.969,133.9463,-999.00,-999.00,-999.0,no,no,no,900111,ITP,WHOI,MOSAiC,North
2019-10-07T19:30:17Z,1570476617,2019,19,30,280.8127,280.8127,84.9673,133.9758,-999.00,-999.00,-999.0,no,no,no,900111,ITP,WHOI,MOSAiC,North
2019-10-07T20:00:48Z,1570478449,2019,20,0,280.8339,280.8339,84.9657,134.0064,-999.00,-999.00,-999.0,no,no,no,900111,ITP,WHOI,MOSAiC,North
2019-10-07T20:30:20Z,1570480220,2019,20,30,280.8544,280.8544,84.9642,134.0371,-999.00,-999.00,-999.0,no,no,no,900111,ITP,WHOI,MOSAiC,North
2019-10-07T21:00:34Z,1570482035,2019,21,0,280.8754,280.8754,84.9628,134.0701,-999.00,-999.00,-999.0,no,no,no,900111,ITP,WHOI,MOSAiC,North
2019-10-07T21:30:23Z,1570483823,2019,21,30,280.8961,280.8961,84.9613,134.1062,-999.00,-999.00,-999.0,no,no,no,900111,ITP,WHOI,MOSAiC,North
2019-10-07T22:00:11Z,1570485612,2019,22,0,280.9168,280.9168,84.9599,134.1458,-999.00,-999.00,-999.0,no,no,no,900111,ITP,WHOI,MOSAiC,North
2019-10-07T22:30:17Z,1570487417,2019,22,30,280.9377,280.9377,84.9583,134.1891,-999.00,-999.00,-999.0,no,no,no,900111,ITP,WHOI,MOSAiC,North
2019-10-07T23:00:14Z,1570489214,2019,23,0,280.9585,280.9585,84.9565,134.2355,-999.00,-999.00,-999.0,no,no,no,900111,ITP,WHOI,MOSAiC,North
2019-10-07T23:30:11Z,1570491012,2019,23,30,280.9793,280.9793,84.9549,134.283,-999.00,-999.00,-999.0,no,no,no,900111,ITP,WHOI,MOSAiC,North
2019-10-08T00:00:34Z,1570492835,2019,0,0,281.0004,281.0004,84.9531,134.3322,-999.00,-999.00,-999.0,no,no,no,900111,ITP,WHOI,MOSAiC,North
2019-10-08T00:30:14Z,1570494614,2019,0,30,281.021,281.021,84.9512,134.3827,-999.00,-999.00,-999.0,no,no,no,900111,ITP,WHOI,MOSAiC,North
2019-10-08T01:01:03Z,1570496463,2019,1,1,281.0424,281.0424,84.9492,134.4355,-999.00,-999.00,-999.0,no,no,no,900111,ITP,WHOI,MOSAiC,North
2019-10-08T01:30:17Z,1570498217,2019,1,30,281.0627,281.0627,84.9473,134.4858,-999.00,-999.00,-999.0,no,no,no,900111,ITP,WHOI,MOSAiC,North
2019-10-08T02:01:06Z,1570500066,2019,2,1,281.0841,281.0841,84.9452,134.5386,-999.00,-999.00,-999.0,no,no,no,900111,ITP,WHOI,MOSAiC,North
2019-10-08T02:31:03Z,1570501863,2019,2,31,281.1049,281.1049,84.9429,134.5904,-999.00,-999.00,-999.0,no,no,no,900111,ITP,WHOI,MOSAiC,North
2019-10-08T03:01:17Z,1570503678,2019,3,1,281.1259,281.1259,84.9404,134.6426,-999.00,-999.00,-999.0,no,no,no,900111,ITP,WHOI,MOSAiC,North
2019-10-08T03:31:14Z,1570505475,2019,3,31,281.1467,281.1467,84.9378,134.6924,-999.00,-999.00,-999.0,no,no,no,900111,ITP,WHOI,MOSAiC,North
2019-10-08T04:01:20Z,1570507281,2019,4,1,281.1676,281.1676,84.9351,134.7402,-999.00,-999.00,-999.0,no,no,no,900111,ITP,WHOI,MOSAiC,North
2019-10-08T04:30:51Z,1570509052,2019,4,30,281.1881,281.1881,84.9324,134.7863,-999.00,-999.00,-999.0,no,no,no,900111,ITP,WHOI,MOSAiC,North
2019-10-08T05:00:57Z,1570510858,2019,5,1,281.209,281.209,84.9296,134.8315,-999.00,-999.00,-999.0,no,no,no,900111,ITP,WHOI,MOSAiC,North
2019-10-08T05:30:46Z,1570512646,2019,5,30,281.2297,281.2297,84.9267,134.8742,-999.00,-999.00,-999.0,no,no,no,900111,ITP,WHOI,MOSAiC,North
2019-10-08T06:01:00Z,1570514460,2019,6,1,281.2507,281.2507,84.9236,134.9151,-999.00,-999.00,-999.0,no,no,no,900111,ITP,WHOI,MOSAiC,North
2019-10-08T06:30:14Z,1570516214,2019,6,30,281.271,281.271,84.9206,134.9517,-999.00,-999.00,-999.0,no,no,no,900111,ITP,WHOI,MOSAiC,North
2019-10-08T07:00:46Z,1570518046,2019,7,0,281.2922,281.2922,84.9175,134.9862,-999.00,-999.00,-999.0,no,no,no,900111,ITP,WHOI,MOSAiC,North
2019-10-08T07:31:00Z,1570519860,2019,7,31,281.3132,281.3132,84.9142,135.0169,-999.00,-999.00,-999.0,no,no,no,900111,ITP,WHOI,MOSAiC,North
2019-10-08T08:00:48Z,1570521649,2019,8,0,281.3339,281.3339,84.911,135.0438,-999.00,-999.00,-999.0,no,no,no,900111,ITP,WHOI,MOSAiC,North
2019-10-08T08:31:03Z,1570523463,2019,8,31,281.3549,281.3549,84.9078,135.0674,-999.00,-999.00,-999.0,no,no,no,900111,ITP,WHOI,MOSAiC,North
2019-10-08T09:00:51Z,1570525252,2019,9,0,281.3756,281.3756,84.9046,135.0872,-999.00,-999.00,-999.0,no,no,no,900111,ITP,WHOI,MOSAiC,North
2019-10-08T09:31:32Z,1570527092,2019,9,31,281.3969,281.3969,84.9013,135.1041,-999.00,-999.00,-999.0,no,no,no,900111,ITP,WHOI,MOSAiC,North
2019-10-08T10:00:11Z,1570528812,2019,10,0,281.4168,281.4168,84.8982,135.116,-999.00,-999.00,-999.0,no,no,no,900111,ITP,WHOI,MOSAiC,North
2019-10-08T10:30:17Z,1570530617,2019,10,30,281.4377,281.4377,84.8949,135.1246,-999.00,-999.00,-999.0,no,no,no,900111,ITP,WHOI,MOSAiC,North
2019-10-08T11:00:14Z,1570532414,2019,11,0,281.4585,281.4585,84.8916,135.1307,-999.00,-999.00,-999.0,no,no,no,900111,ITP,WHOI,MOSAiC,North
2019-10-08T11:30:46Z,1570534246,2019,11,30,281.4797,281.4797,84.8884,135.1344,-999.00,-999.00,-999.0,no,no,no,900111,ITP,WHOI,MOSAiC,North
2019-10-08T12:00:17Z,1570536017,2019,12,0,281.5002,281.5002,84.8854,135.1358,-999.00,-999.00,-999.0,no,no,no,900111,ITP,WHOI,MOSAiC,North
2019-10-08T12:30:14Z,1570537814,2019,12,30,281.521,281.521,84.8824,135.1356,-999.00,-999.00,-999.0,no,no,no,900111,ITP,WHOI,MOSAiC,North
2019-10-08T13:00:46Z,1570539646,2019,13,0,281.5422,281.5422,84.8796,135.1339,-999.00,-999.00,-999.0,no,no,no,900111,ITP,WHOI,MOSAiC,North
2019-10-08T13:30:34Z,1570541435,2019,13,30,281.5629,281.5629,84.8769,135.1318,-999.00,-999.00,-999.0,no,no,no,900111,ITP,WHOI,MOSAiC,North
2019-10-08T14:00:57Z,1570543258,2019,14,1,281.584,281.584,84.8744,135.1295,-999.00,-999.00,-999.0,no,no,no,900111,ITP,WHOI,MOSAiC,North
2019-10-08T14:31:03Z,1570545063,2019,14,31,281.6049,281.6049,84.872,135.127,-999.00,-999.00,-999.0,no,no,no,900111,ITP,WHOI,MOSAiC,North